Location: Goheenville
(40.9070°N, 79.3720°W)
Time: 14:16:34
(UTC-05:00)

Cosmos 1727 Rocket - Visible Passes

Search period start: 28 February 2015 00:00
Search period end: 10 March 2015 01:00
Orbit: 960 x 998 km, 82.9° (Epoch: 27 February)

Date Brightness Start Highest point End Pass type
(mag) Time Alt. Az. Time Alt. Az. Time Alt. Az.
04 Mar 6.5 22:12:14 11° N 22:12:14 11° N 22:12:27 10° N visible
05 Mar 6.6 22:37:57 12° NNW 22:37:57 12° NNW 22:38:29 10° N visible
06 Mar 6.1 21:18:54 14° NNE 21:18:54 14° NNE 21:19:46 10° NNE visible
06 Mar 6.7 23:03:36 11° NNW 23:03:36 11° NNW 23:04:00 10° NNW visible
07 Mar 5.9 21:44:30 20° N 21:44:30 20° N 21:46:13 10° N visible
08 Mar 5.8 21:25:18 15° NE 21:25:18 15° NE 21:26:33 10° NNE visible
08 Mar 5.9 23:09:58 22° NNW 23:09:58 22° NNW 23:12:19 10° N visible
09 Mar 5.2 21:50:40 27° NNE 21:50:40 27° NNE 21:53:27 10° NNE visible
09 Mar 6.2 23:35:20 19° NW 23:35:20 19° NW 23:37:57 10° NNW visible
